FW6654 Weather Reports


time (UTC)temp
C
wind
direction
speed
KPH
gust
KPH
rain 1hr
cm
rain 24hr
cm
rain mn
cm
humidity
%
barometer
mb
20260508071143 2 101 3.2 3.2 0.00 0.00 0.00 79 1005.0
20260508070917 0 112 0.0 0.0 0.00 0.03 0.00 87 1006.5
20260508070640 2 123 3.2 3.2 0.00 0.00 0.00 78 1005.1
20260508070139 2 133 3.2 3.2 0.00 0.00 0.00 78 1005.2
20260508065920 -1 112 0.0 0.0 0.00 0.03 0.00 85 1006.8
20260508065636 2 124 3.2 3.2 0.00 0.00 0.00 79 1005.1
20260508065133 2 106 3.2 3.2 0.00 0.00 0.00 79 1005.2
20260508064631 2 114 3.2 3.2 0.00 0.00 0.00 78 1005.4
20260508064129 2 127 1.6 3.2 0.00 0.00 0.00 76 1005.2
20260508064017 -2 112 0.0 0.0 0.00 0.03 0.00 85 1006.6
20260508063626 3 100 1.6 3.2 0.00 0.00 0.00 77 1005.3
20260508063124 3 119 3.2 4.8 0.00 0.00 0.00 72 1005.5
20260508063117 -1 112 0.0 0.0 0.00 0.03 0.00 82 1006.8
20260508062621 4 134 4.8 4.8 0.00 0.00 0.00 70 1005.5
20260508062118 4 228 3.2 4.8 0.00 0.00 0.00 67 1005.5
20260508061615 3 85 0.0 3.2 0.00 0.00 0.00 70 1005.4
20260508061119 0 112 0.0 0.0 0.00 0.03 0.00 77 1007.2
20260508061113 2 196 0.0 3.2 0.00 0.00 0.00 76 1005.6
20260508060609 3 69 3.2 3.2 0.00 0.00 0.00 79 1005.7
20260508060120 0 202 0.0 1.6 0.00 0.03 0.00 79 1007.2
20260508060107 3 113 1.6 1.6 0.00 0.00 0.00 76 1005.8
20260508055602 3 73 1.6 3.2 0.00 0.00 0.00 73 1005.8
20260508055120 -1 237 0.0 6.4 0.00 0.05 0.00 80 1007.3
20260508055059 3 95 3.2 3.2 0.00 0.00 0.00 70 1005.8
20260508054555 3 103 3.2 4.8 0.00 0.00 0.00 70 1005.8
20260508054053 3 106 3.2 4.8 0.00 0.00 0.00 72 1005.8
20260508054017 -1 196 0.0 3.2 0.00 0.10 0.00 82 1007.2
20260508053549 4 74 3.2 4.8 0.00 0.00 0.00 71 1005.8
20260508053048 5 82 1.6 3.2 0.00 0.00 0.00 69 1005.7
20260508052545 5 152 0.0 1.6 0.00 0.00 0.00 68 1006.0
20260508052041 4 252 0.0 6.4 0.00 0.00 0.00 68 1005.9
20260508052019 -1 247 0.0 0.0 0.00 0.20 0.00 84 1007.2
20260508051538 4 339 0.0 3.2 0.00 0.00 0.00 70 1006.0
20260508051033 3 124 0.0 4.8 0.00 0.00 0.00 73 1006.0
20260508050530 3 100 0.0 3.2 0.00 0.00 0.00 73 1005.8
20260508050217 -1 202 0.0 0.0 0.00 0.23 0.00 85 1007.5
20260508050118 -1 202 0.0 0.0 0.00 0.23 0.00 85 1007.5
20260508050027 4 108 3.2 3.2 0.00 0.00 0.00 69 1006.0
20260508045523 4 112 3.2 3.2 0.00 0.00 0.00 69 1006.1
20260508045119 -1 202 0.0 0.0 0.00 0.25 0.00 85 1007.5
20260508045021 3 160 1.6 3.2 0.00 0.00 0.00 70 1006.1
20260508045017 -1 202 0.0 0.0 0.00 0.25 0.00 85 1007.5
20260508044518 3 42 1.6 3.2 0.00 0.00 0.00 75 1006.0
20260508044017 -1 202 0.0 0.0 0.00 0.28 0.00 86 1007.5
20260508044014 3 108 1.6 3.2 0.00 0.00 0.00 78 1006.1
20260508043510 3 97 1.6 1.6 0.00 0.00 0.00 77 1006.0
20260508043018 -1 202 0.0 0.0 0.00 0.28 0.00 85 1007.5
20260508043007 3 95 1.6 3.2 0.00 0.00 0.00 76 1006.1
20260508042504 3 118 3.2 3.2 0.00 0.00 0.00 76 1006.0
20260508042020 0 202 0.0 0.0 0.00 0.33 0.00 84 1007.6
20260508042002 3 117 3.2 3.2 0.00 0.00 0.00 73 1006.3
20260508041458 3 92 1.6 3.2 0.00 0.00 0.00 71 1006.1
20260508041118 0 202 0.0 0.0 0.00 0.36 0.00 81 1007.9
20260508040955 3 99 3.2 3.2 0.00 0.00 0.00 72 1006.1
20260508040452 3 93 3.2 3.2 0.00 0.00 0.00 74 1006.2
20260508040118 0 202 0.0 0.0 0.00 0.38 0.00 81 1007.9
20260508035949 3 95 0.0 3.2 0.00 0.36 0.36 73 1006.2
20260508035446 3 118 1.6 3.2 0.00 0.36 0.36 70 1006.4
20260508034943 4 100 1.6 3.2 0.00 0.36 0.36 71 1006.2
20260508034441 4 103 3.2 3.2 0.00 0.36 0.36 67 1006.3
20260508034215 1 202 0.0 0.0 0.00 0.41 0.38 79 1008.2
20260508033937 4 94 1.6 3.2 0.00 0.36 0.36 66 1006.4
20260508033435 4 104 3.2 3.2 0.00 0.36 0.36 67 1006.5
20260508033216 2 202 0.0 0.0 0.00 0.41 0.38 75 1007.9
20260508032932 5 97 3.2 4.8 0.00 0.36 0.36 69 1006.5
20260508032430 5 114 3.2 3.2 0.00 0.36 0.36 68 1006.1
20260508032218 2 202 0.0 0.0 0.00 0.43 0.38 71 1008.1
20260508031926 5 134 1.6 3.2 0.00 0.36 0.36 71 1006.2
20260508031424 5 89 0.0 0.0 0.00 0.36 0.36 71 1006.1
20260508031215 1 164 0.0 3.2 0.00 0.46 0.38 74 1007.9
20260508030919 5 113 0.0 1.6 0.00 0.36 0.36 65 1006.4
20260508030416 5 79 1.6 3.2 0.00 0.36 0.36 67 1006.5
20260508030215 1 289 0.0 1.6 0.00 0.46 0.38 79 1007.9
20260508025913 5 86 3.2 3.2 0.00 0.36 0.36 62 1006.3
20260508025410 6 97 1.6 3.2 0.00 0.36 0.36 61 1006.3
20260508025215 0 202 0.0 0.0 0.00 0.46 0.38 79 1007.9
20260508024907 6 76 1.6 4.8 0.00 0.36 0.36 63 1006.3
20260508024404 7 110 3.2 3.2 0.00 0.36 0.36 59 1006.3
20260508024215 0 202 0.0 0.0 0.00 0.46 0.38 75 1007.9
20260508023900 7 96 1.6 3.2 0.00 0.36 0.36 57 1006.0
20260508023357 6 303 1.6 3.2 0.00 0.36 0.36 56 1006.0
20260508023217 1 202 0.0 0.0 0.00 0.46 0.38 74 1007.9
20260508022854 6 245 3.2 3.2 0.00 0.36 0.36 60 1006.0
20260508022350 6 145 0.0 0.0 0.00 0.36 0.36 67 1006.2
20260508022314 1 202 0.0 0.0 0.00 0.46 0.38 73 1007.5
20260508021847 6 89 0.0 1.6 0.00 0.36 0.36 66 1006.0
20260508021343 6 102 0.0 3.2 0.00 0.36 0.36 65 1006.0
20260508021317 0 202 0.0 0.0 0.00 0.46 0.38 75 1007.6
20260508020839 6 101 3.2 3.2 0.00 0.36 0.36 64 1006.2
20260508020337 6 77 0.0 1.6 0.00 0.36 0.36 60 1006.0
20260508020316 0 202 0.0 0.0 0.00 0.46 0.38 71 1007.9
20260508015834 6 81 1.6 3.2 0.00 0.36 0.36 60 1006.1
20260508015332 7 87 1.6 3.2 0.00 0.36 0.36 58 1006.2
20260508015318 0 202 0.0 0.0 0.00 0.46 0.38 70 1007.9
20260508014828 7 70 0.0 3.2 0.00 0.36 0.36 58 1006.1
20260508014326 7 80 1.6 3.2 0.00 0.36 0.36 59 1006.0
20260508014315 7 202 0.0 0.0 0.00 0.46 0.38 67 1007.9
20260508013825 7 33 0.0 3.2 0.00 0.36 0.36 54 1006.1
20260508013323 7 62 3.2 3.2 0.00 0.36 0.36 58 1006.0
20260508012820 7 306 0.0 1.6 0.00 0.36 0.36 54 1006.0
20260508012414 8 202 0.0 0.0 0.00 0.46 0.38 60 1007.9
20260508012317 7 293 0.0 0.0 0.00 0.36 0.36 53 1006.0
20260508011815 8 288 0.0 1.6 0.00 0.36 0.36 55 1006.0
20260508011312 8 337 0.0 1.6 0.00 0.36 0.36 54 1006.1
20260508010809 8 282 0.0 0.0 0.00 0.36 0.36 51 1006.0
20260508010514 9 146 0.0 3.2 0.00 0.46 0.38 54 1007.9
20260508010307 8 214 0.0 3.2 0.00 0.36 0.36 51 1006.0
20260508005804 8 5 0.0 3.2 0.00 0.36 0.36 49 1006.2
20260508005514 10 315 0.0 3.2 0.00 0.48 0.38 52 1007.9
20260508005300 8 304 0.0 3.2 0.00 0.36 0.36 51 1006.1
20260508004756 8 14 1.6 3.2 0.00 0.36 0.36 49 1005.9
20260508004613 10 299 3.2 4.8 0.00 0.48 0.38 51 1007.9
20260508004253 8 321 0.0 3.2 0.00 0.36 0.36 50 1006.0
20260508003749 8 3 1.6 3.2 0.00 0.36 0.36 50 1005.9
20260508003614 10 286 0.0 0.0 0.00 0.48 0.38 51 1007.8
20260508003247 8 8 3.2 3.2 0.00 0.36 0.36 54 1005.9
20260508002743 9 54 3.2 3.2 0.00 0.36 0.36 51 1005.8
20260508002615 11 247 0.0 3.2 0.00 0.48 0.38 49 1007.5
20260508002515 11 265 0.0 3.2 0.00 0.48 0.38 49 1007.5
20260508002416 11 238 0.0 3.2 0.00 0.48 0.38 49 1007.5
20260508002241 9 0 0.0 3.2 0.00 0.36 0.36 50 1005.9
20260508001736 9 338 3.2 3.2 0.00 0.36 0.36 49 1005.7
20260508001418 11 253 1.6 4.8 0.00 0.48 0.38 49 1007.6
20260508001231 10 165 3.2 3.2 0.00 0.36 0.36 50 1005.8
20260508000728 10 25 0.0 3.2 0.00 0.36 0.36 49 1005.8
20260508000514 11 322 4.8 9.7 0.00 0.48 0.38 48 1007.5
20260508000227 10 6 3.2 4.8 0.00 0.36 0.36 47 1005.8
20260507235721 10 257 1.6 4.8 0.00 0.36 0.36 47 1005.6
20260507235614 12 336 1.6 4.8 0.00 0.48 0.38 47 1007.5
20260507235516 12 305 3.2 8.0 0.00 0.48 0.38 47 1007.5
20260507235219 10 43 0.0 4.8 0.00 0.36 0.36 46 1005.4
20260507234716 11 59 3.2 4.8 0.00 0.36 0.36 48 1005.5
20260507234516 12 314 0.0 6.4 0.00 0.48 0.38 46 1007.2
20260507234213 11 352 1.6 3.2 0.00 0.36 0.36 46 1005.4
20260507233709 11 162 0.0 3.2 0.00 0.36 0.36 43 1005.1
20260507233614 12 208 0.0 0.0 0.00 0.48 0.38 45 1006.9
20260507233208 11 262 1.6 4.8 0.00 0.36 0.36 44 1004.9
20260507232704 11 357 0.0 3.2 0.00 0.36 0.36 44 1004.8
20260507232616 13 354 3.2 8.0 0.00 0.48 0.38 45 1006.8
20260507232201 12 6 3.2 6.4 0.00 0.36 0.36 43 1004.6
20260507231658 12 347 3.2 6.4 0.00 0.36 0.36 43 1004.7
20260507231614 13 306 4.8 11.3 0.00 0.51 0.38 44 1006.5
20260507231155 12 42 3.2 6.4 0.00 0.36 0.36 43 1004.5
20260507230651 12 334 4.8 6.4 0.00 0.36 0.36 43 1004.4
20260507230616 13 263 0.0 3.2 0.00 0.58 0.38 46 1006.3
20260507230149 12 331 4.8 8.0 0.00 0.36 0.36 41 1004.1
20260507225714 14 231 1.6 4.8 0.00 0.61 0.38 45 1006.2
20260507225648 12 327 4.8 8.0 0.00 0.36 0.36 42 1004.0
20260507225145 13 265 6.4 9.7 0.00 0.36 0.36 41 1003.9
20260507224715 15 340 3.2 8.0 0.00 0.64 0.38 45 1005.5
20260507224641 13 0 3.2 4.8 0.00 0.36 0.36 43 1003.8
20260507224138 13 352 4.8 8.0 0.00 0.36 0.36 42 1003.6
20260507223634 13 323 6.4 6.4 0.00 0.36 0.36 42 1003.5
20260507223131 13 15 3.2 8.0 0.00 0.36 0.36 43 1003.5
20260507222715 15 334 6.4 14.5 0.00 0.69 0.38 45 1005.5
20260507222628 14 349 4.8 11.3 0.00 0.36 0.36 43 1003.4
20260507222124 14 342 4.8 6.4 0.00 0.36 0.36 44 1003.3
20260507221717 15 331 3.2 6.4 0.00 0.71 0.38 44 1005.2
20260507221620 14 46 4.8 9.7 0.00 0.36 0.36 43 1003.4
20260507221117 15 252 4.8 6.4 0.00 0.36 0.36 42 1003.1
20260507220715 16 294 3.2 8.0 0.00 0.76 0.38 41 1005.2
20260507220614 15 300 4.8 6.4 0.00 0.36 0.36 39 1003.1
20260507220112 16 321 3.2 8.0 0.00 0.36 0.36 37 1002.9
20260507215714 17 271 1.6 6.4 0.00 0.79 0.38 39 1004.8
20260507215608 16 322 3.2 6.4 0.00 0.36 0.36 35 1002.9
20260507215106 16 356 4.8 6.4 0.00 0.36 0.36 34 1003.0
20260507214715 16 302 1.6 6.4 0.00 0.84 0.38 39 1004.8
20260507214603 16 2 4.8 9.7 0.00 0.36 0.36 34 1002.9
20260507214058 16 312 3.2 9.7 0.00 0.36 0.36 36 1003.0
20260507213715 16 264 1.6 6.4 0.00 0.84 0.38 39 1004.8
20260507213555 16 276 4.8 9.7 0.00 0.36 0.36 33 1002.8
20260507213052 16 210 8.0 8.0 0.00 0.36 0.36 37 1002.6
20260507212714 17 277 1.6 8.0 0.00 0.89 0.38 39 1004.8
20260507212548 16 258 0.0 4.8 0.00 0.36 0.36 38 1002.7
20260507212045 16 257 4.8 8.0 0.00 0.36 0.36 37 1002.7
20260507211714 18 288 4.8 14.5 0.00 0.94 0.38 38 1004.6
20260507211542 16 306 3.2 8.0 0.00 0.36 0.36 37 1002.7
20260507211038 17 295 6.4 17.7 0.00 0.36 0.36 35 1002.5
20260507210716 18 346 6.4 16.1 0.00 0.99 0.38 39 1004.5
20260507210535 16 247 6.4 11.3 0.00 0.36 0.36 36 1002.6
20260507210032 17 249 9.7 16.1 0.00 0.36 0.36 34 1002.5
20260507205716 18 266 3.2 8.0 0.00 1.04 0.38 41 1004.5
20260507205529 17 282 4.8 9.7 0.00 0.36 0.36 36 1002.6
20260507205025 17 282 8.0 20.9 0.00 0.36 0.36 36 1002.4
20260507204521 17 328 3.2 11.3 0.00 0.36 0.36 37 1002.5
20260507204019 17 230 9.7 16.1 0.00 0.36 0.36 39 1002.5
20260507203717 17 298 4.8 9.7 0.00 1.17 0.38 46 1004.5
20260507203517 16 303 3.2 9.7 0.00 0.36 0.36 42 1002.6
20260507203014 16 281 4.8 12.9 0.00 0.36 0.36 43 1002.4
20260507202715 17 308 0.0 6.4 0.00 1.22 0.38 47 1004.5
20260507202509 16 246 6.4 9.7 0.00 0.36 0.36 42 1002.3
20260507202006 17 293 4.8 6.4 0.00 0.36 0.36 41 1002.3
20260507201714 17 285 3.2 9.7 0.00 1.30 0.38 46 1004.2
20260507201502 16 274 6.4 6.4 0.00 0.36 0.36 45 1002.4
20260507200958 16 310 3.2 14.5 0.00 0.36 0.36 45 1002.3
20260507200454 16 254 8.0 11.3 0.00 0.36 0.36 42 1002.5
20260507195949 16 285 4.8 14.5 0.00 0.36 0.36 43 1002.4
20260507195447 16 247 4.8 6.4 0.00 0.36 0.36 45 1002.3
20260507194945 16 335 3.2 8.0 0.00 0.36 0.36 46 1002.3
20260507194715 17 328 1.6 8.0 0.00 1.45 0.38 46 1004.1
20260507194441 16 260 6.4 14.5 0.00 0.36 0.36 42 1002.4
20260507193937 17 249 8.0 19.3 0.00 0.36 0.36 39 1002.4
20260507193815 17 332 1.6 6.4 0.00 1.50 0.38 46 1004.1
20260507193434 17 247 11.3 16.1 0.00 0.36 0.36 40 1002.4
20260507192931 16 282 4.8 8.0 0.00 0.36 0.36 44 1002.6
20260507192815 18 230 3.2 11.3 0.00 1.55 0.38 46 1004.5
20260507192427 16 278 3.2 8.0 0.00 0.36 0.36 45 1002.2
20260507191924 16 227 11.3 17.7 0.00 0.36 0.36 43 1002.5
20260507191816 18 44 1.6 8.0 0.00 1.60 0.38 45 1004.3
20260507191420 16 260 6.4 11.3 0.00 0.36 0.36 43 1002.5
20260507190916 17 268 3.2 9.7 0.00 0.36 0.36 43 1002.5
20260507190414 16 244 12.9 14.5 0.00 0.36 0.36 44 1002.5
20260507190014 18 264 3.2 8.0 0.00 1.60 0.38 50 1004.5
20260507185913 16 247 4.8 19.3 0.00 0.36 0.36 44 1002.5
20260507185410 16 224 1.6 12.9 0.00 0.36 0.36 49 1002.6
20260507185016 17 202 0.0 3.2 0.00 1.60 0.38 49 1004.5
20260507184907 16 233 3.2 12.9 0.00 0.36 0.36 50 1002.6
20260507184405 15 213 4.8 6.4 0.00 0.36 0.36 49 1002.8
20260507183902 16 288 6.4 9.7 0.00 0.36 0.36 48 1002.7
20260507183359 16 273 4.8 6.4 0.00 0.36 0.36 47 1002.8
20260507183016 18 219 4.8 9.7 0.00 1.60 0.38 50 1004.6
20260507182856 17 196 3.2 4.8 0.00 0.36 0.36 44 1002.6
20260507182351 16 292 0.0 14.5 0.00 0.36 0.36 48 1002.9
20260507182016 17 171 3.2 6.4 0.00 1.60 0.38 52 1004.8
20260507181848 16 233 4.8 12.9 0.00 0.36 0.36 47 1002.9
20260507181344 15 222 6.4 8.0 0.00 0.36 0.36 49 1003.1
20260507181017 17 175 1.6 6.4 0.00 1.60 0.38 51 1005.0
20260507180841 15 218 4.8 12.9 0.00 0.36 0.36 49 1003.0
20260507180338 15 232 1.6 17.7 0.00 0.36 0.36 50 1003.1
20260507180015 18 202 1.6 4.8 0.00 1.60 0.38 50 1004.9
20260507175833 16 277 3.2 11.3 0.00 0.36 0.36 48 1003.1
20260507175331 16 257 6.4 12.9 0.00 0.36 0.36 46 1003.1
20260507175113 17 332 1.6 8.0 0.00 1.60 0.38 50 1005.0
20260507174828 16 257 11.3 16.1 0.00 0.36 0.36 45 1003.1
20260507174326 15 323 3.2 14.5 0.00 0.36 0.36 48 1003.1
20260507174114 17 308 3.2 8.0 0.00 1.60 0.38 48 1005.2
20260507173823 15 276 3.2 9.7 0.00 0.36 0.36 50 1003.3
20260507173320 15 300 6.4 6.4 0.00 0.36 0.36 46 1003.1
20260507173115 17 329 3.2 6.4 0.00 1.60 0.38 50 1005.2
20260507172816 15 265 4.8 14.5 0.00 0.36 0.36 43 1003.1
20260507172313 16 248 6.4 12.9 0.00 0.36 0.36 46 1003.1
20260507172115 17 297 3.2 8.0 0.00 1.60 0.38 51 1005.2
20260507171809 16 284 3.2 14.5 0.00 0.36 0.36 48 1003.2
20260507171306 16 288 3.2 14.5 0.00 0.36 0.36 49 1003.3
20260507171116 17 81 0.0 1.6 0.00 1.60 0.38 51 1005.2
20260507170803 16 236 8.0 8.0 0.00 0.36 0.36 44 1003.4
20260507170259 16 297 6.4 9.7 0.00 0.36 0.36 47 1003.2
20260507170116 17 337 3.2 4.8 0.00 1.60 0.38 49 1005.2
20260507165755 16 296 4.8 9.7 0.00 0.36 0.36 46 1003.4
20260507165251 16 328 3.2 8.0 0.00 0.36 0.36 54 1003.4
20260507165115 18 328 1.6 4.8 0.00 1.60 0.38 50 1005.4
20260507164748 16 39 1.6 6.4 0.00 0.36 0.36 49 1003.3
20260507164245 16 97 1.6 4.8 0.00 0.36 0.36 56 1003.3
20260507164118 18 241 3.2 9.7 0.00 1.60 0.38 51 1005.5
20260507163742 16 343 0.0 3.2 0.00 0.36 0.36 53 1003.6
20260507163240 15 243 3.2 8.0 0.00 0.36 0.36 53 1003.7
20260507163214 17 309 3.2 9.7 0.00 1.60 0.38 52 1005.8
20260507162735 15 101 3.2 6.4 0.00 0.36 0.36 52 1003.9
20260507162231 15 290 6.4 9.7 0.00 0.36 0.36 53 1003.7
20260507161729 15 76 0.0 3.2 0.00 0.36 0.36 54 1003.8
20260507161225 15 322 3.2 6.4 0.00 0.36 0.36 56 1004.0
20260507161215 17 333 3.2 8.0 0.00 1.60 0.38 54 1005.8
20260507160721 15 237 6.4 8.0 0.00 0.36 0.36 49 1004.1
20260507160218 16 333 4.8 6.4 0.00 0.36 0.36 46 1004.0
20260507160214 17 318 4.8 8.0 0.00 1.60 0.38 53 1006.0
20260507155713 16 341 0.0 3.2 0.00 0.36 0.36 51 1004.1
20260507155215 17 287 1.6 4.8 0.00 1.60 0.38 56 1006.2
20260507155210 16 264 4.8 8.0 0.00 0.36 0.36 51 1004.2
20260507154706 16 37 3.2 4.8 0.00 0.36 0.36 51 1004.2
20260507154215 17 282 3.2 8.0 0.00 1.60 0.38 57 1006.2
20260507154204 16 269 0.0 6.4 0.00 0.36 0.36 49 1004.0
20260507153700 15 208 3.2 3.2 0.00 0.36 0.36 48 1004.3
20260507153216 17 64 1.6 8.0 0.00 1.60 0.38 56 1006.2
20260507153157 15 319 3.2 6.4 0.00 0.36 0.36 51 1004.4
20260507152653 15 290 3.2 6.4 0.00 0.36 0.36 55 1004.3
20260507152217 17 156 3.2 6.4 0.00 1.60 0.38 57 1006.2
20260507152149 13 156 3.2 3.2 0.00 0.36 0.36 59 1004.4
20260507151646 14 331 1.6 3.2 0.00 0.36 0.36 59 1004.3
20260507151215 16 351 1.6 6.4 0.00 1.60 0.38 59 1006.3
20260507151143 14 286 1.6 3.2 0.00 0.36 0.36 59 1004.4
20260507150640 15 271 3.2 6.4 0.00 0.36 0.36 61 1004.5
20260507150313 16 112 1.6 3.2 0.00 1.60 0.38 61 1006.5
20260507150136 15 224 3.2 6.4 0.00 0.36 0.36 58 1004.4
20260507145631 15 80 6.4 6.4 0.00 0.36 0.36 55 1004.6
20260507145315 16 30 1.6 4.8 0.00 1.60 0.38 63 1006.5
20260507145129 15 147 8.0 9.7 0.00 0.36 0.36 56 1004.5
20260507144625 15 103 1.6 6.4 0.00 0.36 0.36 55 1004.7
20260507144124 15 74 3.2 4.8 0.00 0.36 0.36 58 1004.7
20260507143620 15 87 3.2 4.8 0.00 0.36 0.36 57 1004.6
20260507143315 15 112 1.6 4.8 0.00 1.60 0.38 66 1006.8
20260507143216 15 112 3.2 4.8 0.00 1.60 0.38 66 1006.6
20260507143118 15 259 3.2 4.8 0.00 0.36 0.36 61 1004.9
20260507142613 14 355 4.8 4.8 0.00 0.36 0.36 63 1004.8
20260507142216 15 323 1.6 3.2 0.00 1.60 0.38 67 1007.1
20260507142110 14 85 3.2 6.4 0.00 0.36 0.36 63 1004.8
20260507141606 14 330 0.0 3.2 0.00 0.36 0.36 66 1004.9
20260507141215 15 290 3.2 9.7 0.00 1.60 0.38 67 1007.2
20260507141103 13 163 3.2 6.4 0.00 0.36 0.36 63 1005.1
20260507140559 12 46 3.2 4.8 0.00 0.36 0.36 69 1005.2
20260507140314 16 113 0.0 3.2 0.00 1.60 0.38 69 1007.2
20260507140057 12 185 3.2 4.8 0.00 0.36 0.36 68 1005.2
20260507135554 12 311 3.2 6.4 0.00 0.36 0.36 74 1005.0
20260507135316 15 71 0.0 3.2 0.00 1.60 0.38 73 1007.2
20260507135051 12 349 0.0 8.0 0.00 0.36 0.36 72 1004.9
20260507134548 12 286 3.2 4.8 0.00 0.36 0.36 69 1005.1
20260507134318 15 43 1.6 6.4 0.00 1.60 0.38 73 1007.2
20260507134043 12 34 3.2 4.8 0.00 0.36 0.36 74 1005.2
20260507133540 12 307 1.6 3.2 0.00 0.36 0.36 71 1005.3
20260507133314 15 208 3.2 6.4 0.00 1.60 0.38 75 1007.2
20260507133038 12 326 3.2 3.2 0.00 0.36 0.36 73 1005.2
20260507132534 12 343 3.2 4.8 0.00 0.36 0.36 72 1005.2
20260507132031 12 223 9.7 9.7 0.00 0.36 0.36 74 1005.2
20260507131527 12 37 4.8 4.8 0.00 0.36 0.36 74 1005.3
20260507131315 15 209 3.2 9.7 0.00 1.60 0.38 78 1007.5
20260507131025 12 333 3.2 4.8 0.00 0.36 0.36 74 1005.4
20260507130522 11 333 0.0 3.2 0.00 0.36 0.36 76 1005.3
20260507130315 14 315 1.6 3.2 0.00 1.60 0.38 80 1007.3
20260507130020 11 296 1.6 4.8 0.00 0.36 0.36 76 1005.3
20260507125518 11 8 3.2 6.4 0.00 0.36 0.36 80 1005.3
20260507125315 13 294 3.2 4.8 0.00 1.60 0.38 82 1007.2
20260507125015 10 254 3.2 8.0 0.00 0.36 0.36 78 1005.3
20260507124511 10 278 3.2 4.8 0.00 0.36 0.36 80 1005.3
20260507124315 13 33 3.2 6.4 0.00 1.60 0.38 85 1007.5
20260507124216 13 316 0.0 3.2 0.00 1.60 0.38 86 1007.5
20260507124009 10 32 0.0 3.2 0.00 0.36 0.36 81 1005.6
20260507123507 10 228 0.0 3.2 0.00 0.36 0.36 83 1005.5
20260507123216 12 295 1.6 12.9 0.00 1.60 0.38 87 1007.3
20260507123003 10 337 1.6 3.2 0.00 0.36 0.36 83 1005.3
20260507122458 10 291 1.6 4.8 0.00 0.36 0.36 83 1005.5
20260507122216 12 292 0.0 3.2 0.00 1.60 0.38 89 1007.5
20260507121955 10 54 3.2 8.0 0.00 0.36 0.36 84 1005.6
20260507121450 9 52 3.2 6.4 0.00 0.36 0.36 88 1005.7
20260507121315 12 348 0.0 6.4 0.00 1.60 0.38 90 1007.9
20260507120947 8 71 3.2 3.2 0.00 0.36 0.36 90 1005.7
20260507120443 8 44 0.0 3.2 0.00 0.36 0.36 89 1005.6
20260507120415 12 337 0.0 1.6 0.00 1.60 0.38 92 1007.6
20260507115940 8 23 3.2 4.8 0.00 0.36 0.36 90 1005.7
20260507115436 8 66 0.0 4.8 0.00 0.36 0.36 92 1005.8
20260507115415 12 184 3.2 4.8 0.00 1.60 0.38 92 1007.7
20260507114932 8 175 0.0 3.2 0.00 0.36 0.36 93 1005.6
20260507114514 11 223 1.6 4.8 0.00 1.60 0.38 92 1007.5
20260507114428 8 354 1.6 3.2 0.00 0.36 0.36 93 1005.5
20260507113926 8 74 1.6 3.2 0.00 0.36 0.36 92 1005.6
20260507113518 11 314 0.0 3.2 0.00 1.60 0.38 92 1007.9
20260507113423 8 150 0.0 1.6 0.00 0.36 0.36 91 1005.8
20260507112920 8 304 3.2 3.2 0.00 0.36 0.36 92 1005.9
20260507112614 10 157 0.0 3.2 0.00 1.60 0.38 92 1007.7
20260507112417 7 236 1.6 3.2 0.00 0.36 0.36 94 1005.9
20260507111915 7 116 1.6 3.2 0.00 0.36 0.36 93 1005.6
20260507111615 10 292 0.0 0.0 0.00 1.60 0.38 92 1007.5
20260507111412 7 70 1.6 8.0 0.00 0.36 0.36 93 1005.7
20260507110908 7 284 0.0 1.6 0.00 0.36 0.36 94 1005.7
20260507110614 10 337 0.0 3.2 0.00 1.60 0.38 92 1007.2
20260507110404 7 302 0.0 1.6 0.00 0.36 0.36 94 1005.2
20260507105901 7 263 4.8 4.8 0.00 0.36 0.36 94 1005.7
20260507105614 10 292 0.0 0.0 0.00 1.60 0.38 92 1007.5
20260507105358 7 273 3.2 6.4 0.00 0.36 0.36 95 1005.6
20260507104854 7 65 0.0 0.0 0.00 0.36 0.36 96 1005.7
20260507104615 9 235 0.0 1.6 0.00 1.60 0.38 92 1007.5
20260507104351 7 44 0.0 3.2 0.00 0.36 0.36 97 1005.6
20260507103847 7 55 0.0 3.2 0.00 0.36 0.36 98 1005.3
20260507103614 9 292 0.0 0.0 0.00 1.60 0.38 92 1007.2
20260507103344 7 311 3.2 3.2 0.00 0.36 0.36 98 1005.2
20260507102840 7 202 0.0 4.8 0.00 0.36 0.36 99 1005.1
20260507102616 9 180 0.0 0.0 0.00 1.60 0.38 92 1007.2
20260507102337 7 142 1.6 3.2 0.00 0.36 0.36 99 1005.2
20260507101833 7 218 3.2 4.8 0.00 0.36 0.36 99 1005.1
20260507101615 9 180 0.0 0.0 0.00 1.60 0.38 92 1006.8
20260507101517 9 180 0.0 0.0 0.00 1.60 0.38 92 1006.8
20260507101333 7 63 1.6 3.2 0.00 0.36 0.36 99 1005.0
20260507100831 7 40 1.6 3.2 0.00 0.36 0.36 99 1005.2
20260507100615 8 180 0.0 0.0 0.00 1.60 0.38 92 1007.2
20260507100329 7 319 0.0 0.0 0.00 0.36 0.36 99 1005.2
20260507095827 7 89 0.0 1.6 0.00 0.36 0.36 99 1005.2
20260507095713 8 180 0.0 0.0 0.00 1.60 0.38 92 1007.2
20260507095323 7 89 0.0 3.2 0.00 0.36 0.36 99 1005.3
20260507094820 7 57 0.0 3.2 0.00 0.36 0.36 99 1005.2
20260507094316 7 63 3.2 3.2 0.00 0.36 0.36 99 1005.0
20260507093814 7 44 0.0 3.2 0.00 0.36 0.36 99 1005.2
20260507093714 8 180 0.0 0.0 0.00 1.60 0.38 92 1006.8
20260507093312 7 62 1.6 3.2 0.00 0.36 0.36 99 1004.8
20260507092810 7 218 1.6 1.6 0.00 0.36 0.36 99 1005.2
20260507092716 8 180 0.0 0.0 0.00 1.60 0.38 92 1006.8
20260507092307 7 109 0.0 1.6 0.00 0.36 0.36 99 1005.2
20260507091802 7 299 0.0 3.2 0.00 0.36 0.36 99 1005.2
20260507091714 8 180 0.0 0.0 0.03 1.60 0.38 92 1007.2
20260507091259 7 130 1.6 3.2 0.00 0.36 0.36 99 1005.5
20260507090759 7 257 0.0 1.6 0.00 0.36 0.36 99 1005.1
20260507090715 8 180 0.0 0.0 0.03 1.60 0.38 92 1006.5
20260507090256 7 66 3.2 3.2 0.00 0.36 0.36 99 1004.5
20260507085753 7 96 1.6 1.6 0.00 0.36 0.36 99 1004.8
20260507085715 8 180 0.0 0.0 0.03 1.60 0.38 92 1006.5
20260507085250 7 124 0.0 1.6 0.00 0.36 0.36 99 1004.8
20260507084747 7 59 3.2 3.2 0.00 0.36 0.36 99 1004.8
20260507084716 9 180 0.0 0.0 0.03 1.60 0.38 92 1006.5
20260507084243 7 73 1.6 4.8 0.00 0.36 0.36 99 1005.2
20260507083815 9 180 0.0 1.6 0.03 1.60 0.38 92 1006.8
20260507083741 7 269 0.0 1.6 0.00 0.36 0.36 99 1005.1
20260507083237 7 127 3.2 4.8 0.00 0.36 0.36 98 1004.8
20260507082815 9 270 0.0 0.0 0.03 1.60 0.38 92 1006.7
20260507082734 7 81 3.2 3.2 0.00 0.36 0.36 98 1004.7
20260507082229 7 83 3.2 3.2 0.00 0.36 0.36 99 1004.8
20260507081816 10 270 0.0 0.0 0.00 1.57 0.36 92 1006.8
20260507081726 7 35 0.0 3.2 0.00 0.36 0.36 98 1004.9
20260507081222 7 29 1.6 3.2 0.00 0.36 0.36 99 1004.7
20260507080719 7 75 1.6 1.6 0.00 0.36 0.36 98 1005.1
20260507080215 7 89 0.0 1.6 0.00 0.36 0.36 98 1005.1
20260507075816 10 270 0.0 0.0 0.00 1.57 0.36 92 1006.5
20260507075711 8 98 1.6 3.2 0.00 0.36 0.36 98 1004.9
20260507075208 8 73 1.6 3.2 0.00 0.36 0.36 98 1004.8
20260507074914 10 270 0.0 0.0 0.00 1.57 0.36 92 1006.8
20260507074704 8 63 3.2 4.8 0.00 0.36 0.36 98 1004.8
20260507074202 8 133 3.2 4.8 0.00 0.36 0.36 98 1005.1
20260507073658 8 215 3.2 3.2 0.00 0.36 0.36 98 1004.9
20260507073154 8 48 3.2 4.8 0.00 0.36 0.36 98 1004.4
20260507072914 10 337 3.2 6.4 0.00 1.57 0.36 92 1006.8
20260507072653 8 24 3.2 4.8 0.00 0.36 0.36 98 1004.7
20260507072150 8 31 3.2 3.2 0.00 0.36 0.36 98 1004.9
20260507071915 10 202 0.0 0.0 0.00 1.57 0.36 92 1006.5
20260507071647 8 326 0.0 0.0 0.00 0.36 0.36 98 1004.7